Skip Page Navigation
NASA JPL Caltech
NASA Logo - Jet Propulsion Laboratory + View the NASA Portal
+ Center for Near-Earth Object Studies
JPL Home Earth Solar System Stars & Galaxies Technology
JPL Solar System Dynamics
BODIES ORBITS EPHEMERIDES TOOLS PHYSICAL DATA DISCOVERY FAQ SITE MAP
IMPORTANT: The SSD Announcement email list is now available. Major changes are coming in the near future, including possible hostname and/or URL changes. To be notified of such changes, subscribe to this email list.

Please visit this page for more details.


JPL Small-Body Database Browser
Search: [ help ]  
452014 (2014 OJ104)
Classification: Main-belt Asteroid          SPK-ID: 2452014
Ephemeris | Orbit Diagram | Orbital Elements | Mission Design | Physical Parameters | Discovery Circumstances ]

[ show orbit diagram ]
Orbital Elements at Epoch 2458600.5 (2019-Apr-27.0) TDB
Reference: JPL 13 (heliocentric ecliptic J2000)
 Element Value Uncertainty (1-sigma)   Units 
e .06420955255099728 7.789e-08  
a 2.977953898479229 5.4263e-08 au
q 2.786740811140379 2.5342e-07 au
i 8.564183058961605 1.4705e-05 deg
node 324.3111735272088 4.2881e-05 deg
peri 67.34617948439094 0.00012631 deg
M 266.0507776766661 0.00011972 deg
tp 2459090.353336982706
(2020-Aug-28.85333698)
0.0006271 TDB
period 1877.048015436052
5.14
5.1304e-05
1.405e-07
d
yr
n .1917905120377911 5.2421e-09 deg/d
Q 3.169166985818078 5.7748e-08 au
  Orbit Determination Parameters
   # obs. used (total)      85  
   data-arc span      5451 days (14.92 yr)  
   first obs. used      2004-08-25  
   last obs. used      2019-07-29  
   planetary ephem.      DE431  
   SB-pert. ephem.      SB431-N16  
   condition code      0  
   norm. resid. RMS      .55793  
   source      ORB  
   producer      Otto Matic  
   solution date      2019-Sep-24 07:55:30  

Additional Information
 Earth MOID = 1.80401 au 
 Jupiter MOID = 2.13929 au 
 T_jup = 3.240 
[ show covariance matrix ]

Ephemeris | Orbit Diagram | Orbital Elements | Mission Design | Physical Parameters | Discovery Circumstances ]

Physical Parameter Table
Parameter Symbol Value Units Sigma Reference Notes
absolute magnitude H 17.0   n/a MPO361087  

452014 (2014 OJ104)          Discovered 2004-Aug-25 by Spacewatch at Kitt Peak
Reference: Last Updated: 2015-11-30
Ephemeris | Orbit Diagram | Orbital Elements | Mission Design | Physical Parameters | Discovery Circumstances ]
ABOUT SSD CREDITS/AWARDS PRIVACY/COPYRIGHT GLOSSARY LINKS
FirstGov 2019-Dec-13 02:56 UT
(server date/time)  
NASA Home Page
Site Manager:   Ryan S. Park
Webmaster  Alan B. Chamberlin